TimeCET,TemperatureF,Dew PointF,Humidity,Sea Level PressureIn,VisibilityMPH,Wind Direction,Wind SpeedMPH,Gust SpeedMPH,PrecipitationIn,Events,Conditions,WindDirDegrees,DateUTC
12:25 AM,19.4,15.8,86,29.92,6.2,ENE,5.8,-,N/A,,Unknown,60,2012-12-07 23:25:00
12:55 AM,19.4,17.6,93,29.95,5.0,ENE,3.5,-,N/A,,Unknown,60,2012-12-07 23:55:00
1:00 AM,20,18,88,29.96,5,ENE,4.5,,,,Mist,60,2012-12-08 00:00:00
1:25 AM,19.4,17.6,93,29.95,3.7,ENE,4.6,-,N/A,,Unknown,60,2012-12-08 00:25:00
1:55 AM,17.6,17.6,100,29.98,1.4,NE,3.5,-,N/A,,Mist,40,2012-12-08 00:55:00
2:25 AM,19.4,17.6,93,29.98,0.5,NE,3.5,-,N/A,Fog,Light Freezing Fog,50,2012-12-08 01:25:00
2:55 AM,17.6,14.0,86,29.98,1.6,ENE,3.5,-,N/A,,Mist,60,2012-12-08 01:55:00
3:25 AM,15.8,14.0,93,30.01,0.7,East,1.2,-,N/A,,Mist,100,2012-12-08 02:25:00
3:55 AM,15.8,14.0,93,30.01,0.7,ENE,2.3,-,N/A,,Mist,60,2012-12-08 02:55:00
4:00 AM,16,14,89,30.02,0,NE,2.2,,,Fog,Fog,50,2012-12-08 03:00:00
4:25 AM,15.8,12.2,86,30.04,0.6,NNW,1.2,-,N/A,Fog,Light Freezing Fog,330,2012-12-08 03:25:00
4:55 AM,15.8,14.0,93,30.04,-9999.0,NNW,3.5,-,N/A,,Mist,340,2012-12-08 03:55:00
5:25 AM,15.8,12.2,86,30.04,2.8,NNW,2.3,-,N/A,,Mist,330,2012-12-08 04:25:00
5:55 AM,15.8,12.2,86,30.06,2.8,NNW,2.3,-,N/A,,Mist,340,2012-12-08 04:55:00
6:25 AM,15.8,14.0,93,30.06,2.8,Calm,Calm,-,N/A,,Mist,0,2012-12-08 05:25:00
6:55 AM,15.8,14.0,93,30.09,3.1,Calm,Calm,-,N/A,,Mist,0,2012-12-08 05:55:00
7:00 AM,17,15,87,30.10,4,Calm,Calm,,,,Mist,,2012-12-08 06:00:00
7:25 AM,15.8,14.0,93,30.09,5.0,South,2.3,-,N/A,,Unknown,190,2012-12-08 06:25:00
7:55 AM,15.8,14.0,93,30.09,6.2,SW,3.5,-,N/A,,Unknown,230,2012-12-08 06:55:00
8:25 AM,14.0,10.4,86,30.09,4.3,SW,3.5,-,N/A,,Unknown,220,2012-12-08 07:25:00
8:55 AM,14.0,12.2,93,30.12,3.7,SSW,3.5,-,N/A,,Unknown,200,2012-12-08 07:55:00
9:25 AM,15.8,14.0,93,30.12,-9999.0,Variable,2.3,-,N/A,,Mist,0,2012-12-08 08:25:00
9:55 AM,15.8,14.0,93,30.12,3.1,SW,3.5,-,N/A,,Mist,230,2012-12-08 08:55:00
10:00 AM,17,15,86,30.16,3,West,2.2,,,,Mist,260,2012-12-08 09:00:00
10:25 AM,17.6,14.0,86,30.15,-9999.0,WSW,2.3,-,N/A,,Mist,250,2012-12-08 09:25:00
10:55 AM,19.4,17.6,93,30.15,3.7,WSW,4.6,-,N/A,,Unknown,250,2012-12-08 09:55:00
11:25 AM,21.2,19.4,93,30.18,4.3,SW,4.6,-,N/A,,Unknown,230,2012-12-08 10:25:00
11:55 AM,24.8,23.0,93,30.18,5.6,West,4.6,-,N/A,,Unknown,260,2012-12-08 10:55:00
12:25 PM,24.8,23.0,93,30.15,5.0,SW,4.6,-,N/A,,Unknown,230,2012-12-08 11:25:00
12:55 PM,26.6,24.8,93,30.15,5.0,WSW,5.8,-,N/A,,Unknown,240,2012-12-08 11:55:00
1:00 PM,27,26,92,30.17,5,WSW,4.5,,,,Mist,240,2012-12-08 12:00:00
1:25 PM,26.6,24.8,93,30.15,6.2,SW,5.8,-,N/A,,Unknown,220,2012-12-08 12:25:00
1:55 PM,24.8,21.2,86,30.15,6.2,SW,5.8,-,N/A,,Unknown,220,2012-12-08 12:55:00
2:25 PM,24.8,21.2,86,30.15,6.2,WSW,3.5,-,N/A,,Unknown,240,2012-12-08 13:25:00
2:55 PM,28.4,23.0,80,30.18,6.2,WSW,3.5,-,N/A,,Unknown,240,2012-12-08 13:55:00
3:25 PM,28.4,23.0,80,30.18,6.2,WSW,5.8,-,N/A,,Unknown,250,2012-12-08 14:25:00
3:55 PM,26.6,23.0,86,30.18,6.2,SW,6.9,-,N/A,,Unknown,230,2012-12-08 14:55:00
4:00 PM,28,24,79,30.19,9,SW,6.7,,,,Overcast,220,2012-12-08 15:00:00
4:25 PM,28.4,24.8,86,30.18,6.2,SW,5.8,-,N/A,,Unknown,220,2012-12-08 15:25:00
4:55 PM,30.2,26.6,86,30.18,6.2,SW,8.1,-,N/A,,Unknown,230,2012-12-08 15:55:00
5:25 PM,28.4,26.6,93,30.18,6.2,SSW,8.1,-,N/A,,Unknown,210,2012-12-08 16:25:00
5:55 PM,30.2,26.6,86,30.18,5.6,SSW,9.2,-,N/A,,Unknown,210,2012-12-08 16:55:00
6:25 PM,30.2,26.6,86,30.18,5.6,SW,9.2,-,N/A,,Unknown,220,2012-12-08 17:25:00
6:55 PM,30.2,26.6,86,30.18,5.0,SSW,10.4,-,N/A,,Partly Cloudy,210,2012-12-08 17:55:00
7:00 PM,30,27,83,30.19,5,SSW,8.9,,,,Mist,210,2012-12-08 18:00:00
7:25 PM,30.2,26.6,86,30.15,5.0,SSW,10.4,-,N/A,,Unknown,210,2012-12-08 18:25:00
7:55 PM,30.2,26.6,86,30.15,5.0,SSW,9.2,-,N/A,,Scattered Clouds,200,2012-12-08 18:55:00
8:25 PM,30.2,28.4,93,30.15,5.0,SSW,10.4,-,N/A,,Scattered Clouds,200,2012-12-08 19:25:00
8:55 PM,32.0,28.4,87,30.15,5.6,SSW,11.5,-,N/A,,Overcast,200,2012-12-08 19:55:00
9:25 PM,32.0,28.4,87,30.12,5.0,SSW,12.7,-,N/A,,Mostly Cloudy,210,2012-12-08 20:25:00
9:55 PM,32.0,30.2,93,30.12,5.6,SSW,10.4,-,N/A,,Overcast,210,2012-12-08 20:55:00
10:00 PM,33,30,82,30.13,6,SSW,11.2,,,,Light Freezing Rain,210,2012-12-08 21:00:00
10:25 PM,33.8,30.2,87,30.12,5.0,SSW,11.5,-,N/A,,Light Drizzle,210,2012-12-08 21:25:00
10:55 PM,33.8,32.0,93,30.09,4.3,SSW,12.7,-,N/A,,Light Drizzle,210,2012-12-08 21:55:00
11:25 PM,33.8,32.0,93,30.09,3.1,SSW,13.8,-,N/A,,Light Drizzle,210,2012-12-08 22:25:00
11:55 PM,33.8,32.0,93,30.09,2.5,SW,12.7,-,N/A,Rain,Light Rain,220,2012-12-08 22:55:00